DLH2LL EDDH-EDDF

Flight info

Callsign DLH2LL
Flight time 0h 53m
Altitude 30000
Route AMLUH2C/05 AMLUH M852 DENIX DCT RIMET/N0449F310 T157 KOKEB/N0392F230 T157 KERAX KERAX5A
Aircraft A20N/M-SDE2E3FGHIRWXY/LB1

Departure

Time 2026-05-07 10:42
Airport Hamburg Helmut Schmidt Airport (EDDH)

Arrival

Time 2026-05-07 11:35
Airport Frankfurt Main Airport (EDDF)
Time Latitude Longitude Altitude Speed Heading
2026-05-07 10:11 53.63206 10.00360 62 ft 0 kts 86°
2026-05-07 10:28 53.63206 10.00346 62 ft 2 kts 86°
2026-05-07 10:28 53.63205 10.00320 62 ft 2 kts 86°
2026-05-07 10:29 53.63204 10.00296 62 ft 2 kts 86°
2026-05-07 10:29 53.63207 10.00271 62 ft 2 kts 121°
2026-05-07 10:29 53.63217 10.00252 62 ft 2 kts 148°
2026-05-07 10:30 53.63235 10.00243 62 ft 1 kts 177°
2026-05-07 10:30 53.63237 10.00243 62 ft 0 kts 176°
2026-05-07 10:34 53.63235 10.00243 62 ft 1 kts 176°
2026-05-07 10:34 53.63198 10.00247 62 ft 9 kts 176°
2026-05-07 10:35 53.63110 10.00258 62 ft 15 kts 175°
2026-05-07 10:35 53.63023 10.00215 61 ft 10 kts 214°
2026-05-07 10:35 53.62961 10.00147 62 ft 11 kts 212°
2026-05-07 10:35 53.62893 10.00075 62 ft 12 kts 213°
2026-05-07 10:36 53.62823 9.99980 62 ft 14 kts 211°
2026-05-07 10:36 53.62734 9.99898 62 ft 14 kts 209°
2026-05-07 10:36 53.62649 9.99801 62 ft 15 kts 230°
2026-05-07 10:36 53.62623 9.99622 62 ft 16 kts 261°
2026-05-07 10:37 53.62601 9.99424 62 ft 17 kts 258°
2026-05-07 10:37 53.62577 9.99218 62 ft 19 kts 258°
2026-05-07 10:37 53.62552 9.98999 62 ft 19 kts 260°
2026-05-07 10:37 53.62526 9.98779 62 ft 19 kts 258°
2026-05-07 10:38 53.62502 9.98556 62 ft 19 kts 259°
2026-05-07 10:38 53.62475 9.98332 62 ft 19 kts 258°
2026-05-07 10:38 53.62433 9.98112 62 ft 20 kts 238°
2026-05-07 10:38 53.62351 9.97929 62 ft 19 kts 228°
2026-05-07 10:39 53.62264 9.97754 61 ft 19 kts 230°
2026-05-07 10:39 53.62190 9.97598 62 ft 15 kts 242°
2026-05-07 10:39 53.62191 9.97441 62 ft 8 kts 300°
2026-05-07 10:39 53.62206 9.97410 62 ft 0 kts 319°
2026-05-07 10:41 53.62220 9.97391 62 ft 8 kts 323°
2026-05-07 10:41 53.62301 9.97367 62 ft 13 kts 14°
2026-05-07 10:41 53.62360 9.97451 62 ft 10 kts 50°
2026-05-07 10:41 53.62408 9.97547 62 ft 11 kts 51°
2026-05-07 10:42 53.62575 9.97887 62 ft 74 kts 50°
2026-05-07 10:42 53.63054 9.98857 62 ft 139 kts 50°
2026-05-07 10:42 53.63747 10.00285 352 ft 166 kts 52°
2026-05-07 10:42 53.64463 10.01825 1002 ft 170 kts 56°
2026-05-07 10:43 53.65157 10.03380 1805 ft 169 kts 54°
2026-05-07 10:43 53.65888 10.04927 2504 ft 175 kts 52°
2026-05-07 10:43 53.66690 10.06540 3076 ft 188 kts 50°
2026-05-07 10:43 53.67600 10.08275 3536 ft 209 kts 50°
2026-05-07 10:44 53.68607 10.10206 4057 ft 229 kts 50°
2026-05-07 10:44 53.69545 10.12358 4825 ft 236 kts 69°
2026-05-07 10:44 53.69658 10.15193 5352 ft 257 kts 104°
2026-05-07 10:44 53.68716 10.17773 6129 ft 270 kts 135°
2026-05-07 10:45 53.67069 10.19239 7026 ft 278 kts 163°
2026-05-07 10:45 53.65174 10.19948 7913 ft 281 kts 164°
2026-05-07 10:45 53.63289 10.20809 8785 ft 284 kts 161°
2026-05-07 10:45 53.61393 10.21784 9503 ft 288 kts 161°
2026-05-07 10:46 53.59494 10.22762 9929 ft 290 kts 162°
2026-05-07 10:46 53.57554 10.23746 10044 ft 291 kts 162°
2026-05-07 10:46 53.55615 10.24717 10049 ft 290 kts 162°
2026-05-07 10:46 53.53700 10.25669 10066 ft 290 kts 162°
2026-05-07 10:47 53.51750 10.26635 10053 ft 290 kts 162°
2026-05-07 10:47 53.49830 10.27583 10054 ft 290 kts 162°
2026-05-07 10:47 53.47907 10.28531 10066 ft 290 kts 162°
2026-05-07 10:47 53.45954 10.29493 10051 ft 290 kts 162°
2026-05-07 10:48 53.44036 10.30437 10041 ft 290 kts 162°
2026-05-07 10:48 53.42101 10.31388 10048 ft 290 kts 162°
2026-05-07 10:48 53.40158 10.32343 10054 ft 290 kts 162°
2026-05-07 10:48 53.38235 10.33286 10058 ft 291 kts 162°
2026-05-07 10:49 53.36254 10.34258 10319 ft 302 kts 162°
2026-05-07 10:49 53.34176 10.35279 10713 ft 321 kts 162°
2026-05-07 10:49 53.31976 10.36356 11083 ft 339 kts 162°
2026-05-07 10:49 53.29655 10.37491 11438 ft 356 kts 163°
2026-05-07 10:50 53.27285 10.38648 12032 ft 364 kts 163°
2026-05-07 10:50 53.24842 10.39838 12772 ft 367 kts 163°
2026-05-07 10:50 53.22410 10.41022 13492 ft 370 kts 163°
2026-05-07 10:50 53.19927 10.42228 14173 ft 375 kts 163°
2026-05-07 10:51 53.17416 10.43453 14856 ft 378 kts 163°
2026-05-07 10:51 53.15705 10.44273 15318 ft 380 kts 165°
2026-05-07 10:52 53.11276 10.45303 16433 ft 385 kts 179°
2026-05-07 10:52 53.08627 10.45136 17075 ft 387 kts 184°
2026-05-07 10:52 53.05926 10.44753 17690 ft 390 kts 187°
2026-05-07 10:53 53.03264 10.43993 18287 ft 393 kts 192°
2026-05-07 10:53 53.00579 10.43041 18876 ft 396 kts 193°
2026-05-07 10:53 52.97902 10.42076 19466 ft 398 kts 192°
2026-05-07 10:53 52.95160 10.41108 20057 ft 401 kts 192°
2026-05-07 10:54 52.92450 10.40170 20626 ft 403 kts 192°
2026-05-07 10:54 52.89686 10.39228 21193 ft 406 kts 192°
2026-05-07 10:54 52.86916 10.38293 21725 ft 409 kts 192°
2026-05-07 10:54 52.84115 10.37355 22228 ft 413 kts 192°
2026-05-07 10:55 52.81314 10.36421 22739 ft 416 kts 192°
2026-05-07 10:55 52.78486 10.35481 23248 ft 418 kts 192°
2026-05-07 10:55 52.75608 10.34526 23753 ft 421 kts 192°
2026-05-07 10:55 52.72745 10.33579 24250 ft 424 kts 191°
2026-05-07 10:56 52.69850 10.32622 24734 ft 427 kts 191°
2026-05-07 10:56 52.66946 10.31664 25185 ft 430 kts 191°
2026-05-07 10:56 52.63991 10.30692 25634 ft 432 kts 191°
2026-05-07 10:56 52.61043 10.29723 26162 ft 433 kts 191°
2026-05-07 10:57 52.58097 10.28756 26816 ft 430 kts 191°
2026-05-07 10:57 52.55204 10.27806 27430 ft 428 kts 191°
2026-05-07 10:57 52.52291 10.26852 28000 ft 427 kts 191°
2026-05-07 10:57 52.49388 10.25904 28547 ft 426 kts 191°
2026-05-07 10:58 52.46492 10.24960 29053 ft 425 kts 191°
2026-05-07 10:58 52.43592 10.24017 29527 ft 424 kts 191°
2026-05-07 10:58 52.40673 10.23068 29912 ft 426 kts 191°
2026-05-07 10:58 52.37786 10.22129 30244 ft 428 kts 191°
2026-05-07 10:59 52.34879 10.21186 30592 ft 429 kts 191°
2026-05-07 10:59 52.31921 10.20226 30930 ft 430 kts 191°
2026-05-07 10:59 52.26072 10.18332 31022 ft 432 kts 191°
2026-05-07 11:00 52.20192 10.16435 31025 ft 432 kts 191°
2026-05-07 11:00 52.14278 10.14531 31027 ft 432 kts 191°
2026-05-07 11:01 52.08379 10.12638 31022 ft 433 kts 191°
2026-05-07 11:01 52.02504 10.10759 31021 ft 433 kts 191°
2026-05-07 11:02 51.96500 10.08841 31223 ft 443 kts 191°
2026-05-07 11:02 51.93510 10.07887 31406 ft 445 kts 191°
2026-05-07 11:02 51.90465 10.06917 31674 ft 445 kts 191°
2026-05-07 11:03 51.87420 10.05949 31957 ft 444 kts 191°
2026-05-07 11:03 51.84413 10.04993 32215 ft 443 kts 191°
2026-05-07 11:03 51.81373 10.04029 32458 ft 443 kts 191°
2026-05-07 11:03 51.78335 10.03068 32663 ft 444 kts 191°
2026-05-07 11:04 51.75311 10.02112 32850 ft 444 kts 191°
2026-05-07 11:04 51.72308 10.01166 33024 ft 444 kts 191°
2026-05-07 11:04 51.69289 10.00216 33221 ft 444 kts 191°
2026-05-07 11:04 51.66269 9.99266 33399 ft 444 kts 191°
2026-05-07 11:05 51.63206 9.98304 33574 ft 444 kts 191°
2026-05-07 11:05 51.60215 9.97363 33749 ft 445 kts 191°
2026-05-07 11:05 51.57173 9.96408 33924 ft 445 kts 191°
2026-05-07 11:05 51.54170 9.95466 34100 ft 445 kts 191°
2026-05-07 11:06 51.51146 9.94521 34269 ft 445 kts 191°
2026-05-07 11:06 51.48118 9.93576 34432 ft 445 kts 191°
2026-05-07 11:06 51.45057 9.92621 34591 ft 445 kts 191°
2026-05-07 11:06 51.42058 9.91688 34745 ft 445 kts 191°
2026-05-07 11:07 51.38998 9.90737 34917 ft 445 kts 191°
2026-05-07 11:07 51.35950 9.89789 35089 ft 444 kts 191°
2026-05-07 11:07 51.32922 9.88851 35262 ft 444 kts 192°
2026-05-07 11:07 51.29931 9.87924 35435 ft 443 kts 191°
2026-05-07 11:08 51.26925 9.86994 35604 ft 442 kts 191°
2026-05-07 11:08 51.23914 9.86063 35759 ft 442 kts 192°
2026-05-07 11:08 51.20893 9.85131 35917 ft 441 kts 192°
2026-05-07 11:08 51.17884 9.84203 35981 ft 441 kts 192°
2026-05-07 11:09 51.11899 9.82363 35991 ft 441 kts 192°
2026-05-07 11:09 51.05868 9.80514 35993 ft 441 kts 192°
2026-05-07 11:10 50.99873 9.78680 35998 ft 442 kts 192°
2026-05-07 11:10 50.93816 9.76832 36002 ft 442 kts 192°
2026-05-07 11:11 50.87763 9.74991 35979 ft 442 kts 192°
2026-05-07 11:11 50.81766 9.73170 35978 ft 441 kts 192°
2026-05-07 11:12 50.75744 9.71348 35849 ft 440 kts 192°
2026-05-07 11:12 50.72101 9.70249 35110 ft 446 kts 192°
2026-05-07 11:13 50.69015 9.69317 34293 ft 454 kts 192°
2026-05-07 11:13 50.65917 9.68346 33542 ft 459 kts 193°
2026-05-07 11:13 50.62832 9.67124 32870 ft 462 kts 196°
2026-05-07 11:13 50.59777 9.65610 32197 ft 463 kts 199°
2026-05-07 11:14 50.56794 9.63841 31477 ft 465 kts 201°
2026-05-07 11:14 50.53789 9.62002 30596 ft 466 kts 201°
2026-05-07 11:14 50.50799 9.60051 29541 ft 470 kts 208°
2026-05-07 11:14 50.48208 9.56965 28353 ft 473 kts 229°
2026-05-07 11:15 50.46418 9.52687 27285 ft 472 kts 248°
2026-05-07 11:15 50.45436 9.47807 26413 ft 468 kts 256°
2026-05-07 11:15 50.44592 9.42968 25790 ft 460 kts 256°
2026-05-07 11:15 50.43729 9.38227 25150 ft 453 kts 255°
2026-05-07 11:16 50.42837 9.33476 24469 ft 448 kts 254°
2026-05-07 11:16 50.41964 9.28891 23828 ft 442 kts 254°
2026-05-07 11:16 50.41056 9.24332 23164 ft 438 kts 252°
2026-05-07 11:16 50.40038 9.19870 22440 ft 435 kts 251°
2026-05-07 11:17 50.39006 9.15428 21826 ft 430 kts 250°
2026-05-07 11:17 50.37999 9.11097 21267 ft 424 kts 251°
2026-05-07 11:17 50.37003 9.06821 20722 ft 419 kts 251°
2026-05-07 11:17 50.36007 9.02553 20176 ft 414 kts 251°
2026-05-07 11:18 50.35031 8.98377 19641 ft 409 kts 251°
2026-05-07 11:18 50.34054 8.94198 19106 ft 405 kts 251°
2026-05-07 11:18 50.32803 8.90290 18530 ft 404 kts 234°
2026-05-07 11:18 50.30750 8.87346 17999 ft 403 kts 213°
2026-05-07 11:19 50.28194 8.85713 17461 ft 402 kts 192°
2026-05-07 11:19 50.25426 8.85612 16929 ft 400 kts 171°
2026-05-07 11:19 50.22843 8.87049 16403 ft 397 kts 149°
2026-05-07 11:19 50.20760 8.89826 15862 ft 393 kts 128°
2026-05-07 11:20 50.19474 8.93519 15341 ft 387 kts 106°
2026-05-07 11:20 50.19112 8.97615 14825 ft 381 kts 85°
2026-05-07 11:20 50.19698 9.01514 14308 ft 373 kts 63°
2026-05-07 11:20 50.21158 9.04795 13786 ft 366 kts 42°
2026-05-07 11:21 50.23234 9.06998 13289 ft 359 kts 24°
2026-05-07 11:21 50.25442 9.08718 12778 ft 359 kts 32°
2026-05-07 11:21 50.27162 9.11494 12259 ft 362 kts 57°
2026-05-07 11:21 50.28140 9.15114 11765 ft 362 kts 69°
2026-05-07 11:22 50.28934 9.18803 11264 ft 360 kts 69°
2026-05-07 11:22 50.29739 9.22475 10918 ft 352 kts 69°
2026-05-07 11:22 50.30538 9.26023 10732 ft 339 kts 69°
2026-05-07 11:22 50.31316 9.29435 10563 ft 327 kts 69°
2026-05-07 11:23 50.31758 9.32824 10365 ft 319 kts 91°
2026-05-07 11:23 50.31149 9.36084 10201 ft 310 kts 122°
2026-05-07 11:23 50.29652 9.38374 10053 ft 300 kts 146°
2026-05-07 11:23 50.27909 9.40104 9906 ft 296 kts 147°
2026-05-07 11:24 50.26173 9.41814 9753 ft 296 kts 147°
2026-05-07 11:24 50.24417 9.43523 9600 ft 296 kts 149°
2026-05-07 11:24 50.22525 9.44632 9365 ft 294 kts 177°
2026-05-07 11:24 50.20589 9.44005 9057 ft 286 kts 208°
2026-05-07 11:25 50.18889 9.42382 8900 ft 284 kts 223°
2026-05-07 11:25 50.17739 9.39925 8740 ft 279 kts 251°
2026-05-07 11:25 50.17444 9.37001 8584 ft 274 kts 277°
2026-05-07 11:25 50.17891 9.34112 8252 ft 273 kts 287°
2026-05-07 11:26 50.18304 9.31266 7902 ft 272 kts 282°
2026-05-07 11:26 50.18631 9.28353 7490 ft 272 kts 281°
2026-05-07 11:26 50.18941 9.25440 6985 ft 276 kts 281°
2026-05-07 11:26 50.19246 9.22523 6482 ft 275 kts 281°
2026-05-07 11:27 50.19541 9.19621 5971 ft 268 kts 281°
2026-05-07 11:27 50.19813 9.16923 5478 ft 261 kts 280°
2026-05-07 11:27 50.19736 9.14116 5067 ft 263 kts 253°
2026-05-07 11:27 50.19028 9.11490 4999 ft 266 kts 248°
2026-05-07 11:28 50.18240 9.08848 4996 ft 266 kts 248°
2026-05-07 11:28 50.17492 9.06228 4990 ft 262 kts 250°
2026-05-07 11:28 50.16789 9.03643 4996 ft 260 kts 250°
2026-05-07 11:28 50.16104 9.01000 4995 ft 265 kts 250°
2026-05-07 11:29 50.15436 8.98351 5003 ft 266 kts 251°
2026-05-07 11:29 50.14773 8.95661 5000 ft 266 kts 250°
2026-05-07 11:29 50.14111 8.92963 5003 ft 266 kts 252°
2026-05-07 11:29 50.13465 8.90300 5002 ft 261 kts 252°
2026-05-07 11:30 50.12839 8.87722 4995 ft 245 kts 252°
2026-05-07 11:30 50.12253 8.85294 4886 ft 235 kts 252°
2026-05-07 11:30 50.11683 8.82927 4589 ft 234 kts 252°
2026-05-07 11:30 50.11112 8.80557 4258 ft 234 kts 252°
2026-05-07 11:31 50.10554 8.78246 3914 ft 220 kts 252°
2026-05-07 11:31 50.10035 8.76099 3602 ft 205 kts 252°
2026-05-07 11:31 50.09558 8.74122 3396 ft 188 kts 253°
2026-05-07 11:31 50.09120 8.72310 3141 ft 170 kts 253°
2026-05-07 11:32 50.08357 8.69125 2607 ft 147 kts 253°
2026-05-07 11:32 50.08009 8.67674 2386 ft 138 kts 253°
2026-05-07 11:32 50.07674 8.66273 2198 ft 138 kts 253°
2026-05-07 11:33 50.07339 8.64875 2018 ft 139 kts 253°
2026-05-07 11:33 50.07005 8.63485 1838 ft 138 kts 252°
2026-05-07 11:33 50.06666 8.62085 1631 ft 138 kts 252°
2026-05-07 11:33 50.06328 8.60705 1451 ft 139 kts 251°
2026-05-07 11:34 50.05991 8.59284 1254 ft 140 kts 252°
2026-05-07 11:34 50.05669 8.57875 1058 ft 139 kts 252°
2026-05-07 11:34 50.05324 8.56465 839 ft 142 kts 251°
2026-05-07 11:34 50.04977 8.55029 658 ft 141 kts 251°
2026-05-07 11:35 50.04642 8.53616 455 ft 135 kts 250°
2026-05-07 11:35 50.04326 8.52311 371 ft 118 kts 258°
2026-05-07 11:35 50.04102 8.51353 370 ft 69 kts 249°
2026-05-07 11:35 50.03990 8.50886 370 ft 31 kts 250°
2026-05-07 11:36 50.03915 8.50580 370 ft 29 kts 251°
2026-05-07 11:36 50.03804 8.50341 370 ft 24 kts 225°
2026-05-07 11:36 50.03707 8.50199 370 ft 17 kts 219°
2026-05-07 11:36 50.03625 8.50225 370 ft 9 kts 115°
2026-05-07 11:37 50.03640 8.50337 370 ft 11 kts 70°
2026-05-07 11:37 50.03670 8.50461 370 ft 13 kts 70°
2026-05-07 11:37 50.03708 8.50613 370 ft 16 kts 69°
2026-05-07 11:37 50.03749 8.50786 370 ft 18 kts 70°
2026-05-07 11:38 50.03799 8.50994 370 ft 20 kts 69°
2026-05-07 11:38 50.03848 8.51202 370 ft 20 kts 70°
2026-05-07 11:38 50.03897 8.51408 370 ft 20 kts 70°
2026-05-07 11:38 50.03945 8.51612 370 ft 19 kts 70°
2026-05-07 11:39 50.03994 8.51809 370 ft 19 kts 71°
2026-05-07 11:39 50.04040 8.52006 370 ft 19 kts 70°
2026-05-07 11:39 50.04090 8.52208 370 ft 20 kts 70°
2026-05-07 11:39 50.04139 8.52414 370 ft 20 kts 70°
2026-05-07 11:40 50.04188 8.52618 370 ft 20 kts 70°
2026-05-07 11:40 50.04236 8.52819 370 ft 19 kts 70°
2026-05-07 11:40 50.04283 8.53019 370 ft 20 kts 69°
2026-05-07 11:40 50.04333 8.53224 370 ft 20 kts 71°
2026-05-07 11:41 50.04381 8.53444 380 ft 21 kts 74°
2026-05-07 11:41 50.04404 8.53681 390 ft 22 kts 84°
2026-05-07 11:41 50.04419 8.53921 390 ft 21 kts 85°
2026-05-07 11:41 50.04435 8.54144 390 ft 20 kts 84°
2026-05-07 11:42 50.04446 8.54366 390 ft 20 kts 88°
2026-05-07 11:42 50.04425 8.54591 382 ft 23 kts 117°
2026-05-07 11:42 50.04297 8.54778 370 ft 26 kts 157°
2026-05-07 11:42 50.04140 8.54866 370 ft 22 kts 161°
2026-05-07 11:43 50.04025 8.54944 370 ft 14 kts 131°
2026-05-07 11:43 50.04036 8.55093 370 ft 14 kts 69°
2026-05-07 11:43 50.04075 8.55250 370 ft 16 kts 70°
2026-05-07 11:43 50.04115 8.55415 370 ft 16 kts 70°
2026-05-07 11:44 50.04155 8.55590 370 ft 18 kts 70°
2026-05-07 11:44 50.04200 8.55776 370 ft 18 kts 70°
2026-05-07 11:44 50.04245 8.55962 370 ft 18 kts 69°
2026-05-07 11:44 50.04291 8.56155 370 ft 19 kts 70°
2026-05-07 11:45 50.04336 8.56350 370 ft 19 kts 70°
2026-05-07 11:45 50.04380 8.56530 370 ft 19 kts 69°
2026-05-07 11:45 50.04430 8.56736 370 ft 19 kts 70°
2026-05-07 11:45 50.04516 8.56852 370 ft 17 kts
2026-05-07 11:46 50.04626 8.56913 370 ft 17 kts 25°
2026-05-07 11:46 50.04729 8.56990 370 ft 12 kts 25°
2026-05-07 11:46 50.04788 8.56968 370 ft 9 kts 282°
2026-05-07 11:46 50.04801 8.56915 370 ft 0 kts 294°
2026-05-07 11:47 50.04801 8.56913 370 ft 0 kts 294°